Tracking 28779 objects as of 17-Apr-2024
HD Live streaming from Space Station
objects crossing your sky now

NANOSAT(1)

Track NANOSAT(1) now!
10-day predictions
NANOSAT(1) is classified as:


NORAD ID: 28493
Int'l Code: 2004-049B
Perigee: 646.3 km
Apogee: 650.8 km
Inclination: 98.1 °
Period: 97.5 minutes
Semi major axis: 7019 km
RCS: 0.2736 m2 (medium)
Launch date: December 18, 2004
Source: Spain (SPN)
Launch site: FRENCH GUIANA (FRGUI)

Will maintain contact with Spanish zone in Antarctica; extremely small magnetic and solar sensors.
Your satellite tracking list
Your tracking list is empty




NASA's NSSDC Master Catalog

Two Line Element Set (TLE):
1 28493U 04049B   24107.90374832  .00003821  00000-0  56012-3 0  9994
2 28493  98.1375 220.9511 0003233 326.0469  34.0533 14.76174334 38528
Source of the keplerian elements: AFSPC